ENT5160 HEMA-EPWR

Flight info

Callsign ENT5160
Flight time 4h 40m
Altitude 32000
Route MAK V730 MEMPO M686 LXR P751 AST W8 CVO A16 RASDA/N0453F340 M855 TOMBI UA16 AYT UQ23 OSDAN UQ26 BKZ UG123 MAKOL DCT ARGES DCT KARIL DCT KEKED DCT LENOV L619 LUMVE
Aircraft B738/M-SDE2E3FGHIRWXY/LB1

Departure

Time 2026-04-30 06:26
Airport Marsa Alam International Airport (HEMA)

Arrival

Time 2026-04-30 11:06
Airport Copernicus Wrocław Airport (EPWR)
Time Latitude Longitude Altitude Speed Heading
2026-04-30 05:56 25.55468 34.59085 241 ft 0 kts 60°
2026-04-30 06:15 25.55464 34.59078 241 ft 3 kts 60°
2026-04-30 06:16 25.55453 34.59055 241 ft 3 kts 66°
2026-04-30 06:16 25.55446 34.59032 241 ft 3 kts 83°
2026-04-30 06:16 25.55447 34.59011 241 ft 3 kts 133°
2026-04-30 06:16 25.55452 34.59005 241 ft 1 kts 150°
2026-04-30 06:19 25.55423 34.59025 241 ft 11 kts 149°
2026-04-30 06:19 25.55386 34.59048 241 ft 9 kts 149°
2026-04-30 06:20 25.55344 34.59076 241 ft 6 kts 149°
2026-04-30 06:20 25.55295 34.59108 241 ft 7 kts 150°
2026-04-30 06:20 25.55266 34.59125 241 ft 3 kts 154°
2026-04-30 06:20 25.55237 34.59135 241 ft 8 kts 173°
2026-04-30 06:21 25.55186 34.59094 242 ft 12 kts 236°
2026-04-30 06:21 25.55143 34.59024 251 ft 10 kts 221°
2026-04-30 06:21 25.55067 34.59007 253 ft 10 kts 176°
2026-04-30 06:21 25.55017 34.59053 253 ft 13 kts 141°
2026-04-30 06:22 25.54942 34.59102 254 ft 16 kts 152°
2026-04-30 06:22 25.54848 34.59161 251 ft 15 kts 148°
2026-04-30 06:22 25.54747 34.59227 248 ft 16 kts 152°
2026-04-30 06:22 25.54644 34.59253 249 ft 11 kts 218°
2026-04-30 06:23 25.54591 34.59170 252 ft 15 kts 242°
2026-04-30 06:23 25.54628 34.59072 253 ft 17 kts 341°
2026-04-30 06:23 25.54645 34.59063 254 ft 0 kts 329°
2026-04-30 06:25 25.54645 34.59062 254 ft 1 kts 329°
2026-04-30 06:25 25.54786 34.58969 258 ft 56 kts 329°
2026-04-30 06:25 25.55314 34.58635 255 ft 117 kts 330°
2026-04-30 06:26 25.56171 34.58077 293 ft 164 kts 328°
2026-04-30 06:26 25.57144 34.57394 924 ft 166 kts 324°
2026-04-30 06:26 25.57899 34.56444 1535 ft 177 kts 294°
2026-04-30 06:26 25.57920 34.55009 1805 ft 206 kts 261°
2026-04-30 06:27 25.57530 34.53401 1993 ft 228 kts 259°
2026-04-30 06:27 25.57105 34.51676 2315 ft 236 kts 259°
2026-04-30 06:27 25.56665 34.49930 2854 ft 237 kts 258°
2026-04-30 06:27 25.56221 34.48165 3372 ft 239 kts 258°
2026-04-30 06:28 25.55779 34.46377 3829 ft 243 kts 258°
2026-04-30 06:28 25.55331 34.44557 4300 ft 247 kts 259°
2026-04-30 06:28 25.54876 34.42721 4731 ft 253 kts 259°
2026-04-30 06:28 25.54401 34.40779 4995 ft 268 kts 259°
2026-04-30 06:29 25.53906 34.38776 5662 ft 269 kts 258°
2026-04-30 06:29 25.53411 34.36781 6368 ft 270 kts 258°
2026-04-30 06:29 25.52912 34.34764 6982 ft 273 kts 258°
2026-04-30 06:29 25.52407 34.32725 7588 ft 277 kts 257°
2026-04-30 06:30 25.51899 34.30669 8272 ft 276 kts 257°
2026-04-30 06:30 25.51390 34.28611 8891 ft 279 kts 257°
2026-04-30 06:30 25.50875 34.26530 9509 ft 281 kts 256°
2026-04-30 06:30 25.50356 34.24434 10098 ft 284 kts 256°
2026-04-30 06:31 25.49829 34.22286 10430 ft 297 kts 256°
2026-04-30 06:31 25.49266 34.20012 10583 ft 316 kts 256°
2026-04-30 06:31 25.48666 34.17595 10713 ft 334 kts 256°
2026-04-30 06:31 25.48035 34.15053 10841 ft 351 kts 256°
2026-04-30 06:32 25.47376 34.12402 11067 ft 362 kts 256°
2026-04-30 06:32 25.46704 34.09699 11518 ft 366 kts 256°
2026-04-30 06:32 25.46029 34.06984 12058 ft 367 kts 256°
2026-04-30 06:32 25.45352 34.04259 12613 ft 368 kts 256°
2026-04-30 06:33 25.44672 34.01522 13096 ft 370 kts 256°
2026-04-30 06:33 25.43985 33.98763 13611 ft 373 kts 256°
2026-04-30 06:33 25.43296 33.95997 14092 ft 373 kts 257°
2026-04-30 06:33 25.42807 33.93180 14515 ft 374 kts 268°
2026-04-30 06:34 25.42842 33.90309 14930 ft 374 kts 277°
2026-04-30 06:34 25.43315 33.87480 15370 ft 375 kts 287°
2026-04-30 06:34 25.44088 33.84763 15804 ft 376 kts 288°
2026-04-30 06:34 25.44904 33.82008 16234 ft 378 kts 288°
2026-04-30 06:35 25.45727 33.79240 16623 ft 380 kts 288°
2026-04-30 06:35 25.46550 33.76455 17065 ft 381 kts 288°
2026-04-30 06:35 25.47369 33.73663 17491 ft 382 kts 288°
2026-04-30 06:35 25.48186 33.70858 17909 ft 384 kts 288°
2026-04-30 06:36 25.49003 33.68038 18276 ft 386 kts 288°
2026-04-30 06:36 25.49821 33.65201 18653 ft 387 kts 288°
2026-04-30 06:36 25.50638 33.62365 19020 ft 387 kts 288°
2026-04-30 06:36 25.51456 33.59516 19356 ft 390 kts 288°
2026-04-30 06:37 25.52279 33.56651 19672 ft 392 kts 288°
2026-04-30 06:37 25.53105 33.53770 19986 ft 394 kts 288°
2026-04-30 06:37 25.53934 33.50875 20354 ft 394 kts 288°
2026-04-30 06:37 25.54764 33.47977 20706 ft 396 kts 288°
2026-04-30 06:38 25.55596 33.45069 21034 ft 397 kts 288°
2026-04-30 06:38 25.56431 33.42150 21344 ft 399 kts 288°
2026-04-30 06:38 25.57271 33.39205 21669 ft 401 kts 288°
2026-04-30 06:38 25.58104 33.36287 21993 ft 402 kts 288°
2026-04-30 06:39 25.58947 33.33331 22306 ft 404 kts 288°
2026-04-30 06:39 25.59793 33.30361 22613 ft 405 kts 288°
2026-04-30 06:39 25.60642 33.27379 22908 ft 407 kts 288°
2026-04-30 06:39 25.61497 33.24375 23143 ft 410 kts 288°
2026-04-30 06:40 25.62355 33.21356 23423 ft 412 kts 288°
2026-04-30 06:40 25.63204 33.18364 23698 ft 413 kts 288°
2026-04-30 06:40 25.64077 33.15287 23980 ft 413 kts 288°
2026-04-30 06:40 25.64924 33.12299 24286 ft 413 kts 288°
2026-04-30 06:41 25.65784 33.09262 24569 ft 413 kts 288°
2026-04-30 06:41 25.66645 33.06217 24785 ft 415 kts 288°
2026-04-30 06:41 25.67510 33.03156 24997 ft 417 kts 288°
2026-04-30 06:41 25.68377 33.00089 25231 ft 418 kts 288°
2026-04-30 06:42 25.69244 32.97015 25485 ft 418 kts 288°
2026-04-30 06:42 25.70112 32.93937 25734 ft 419 kts 288°
2026-04-30 06:42 25.70982 32.90848 25955 ft 420 kts 288°
2026-04-30 06:42 25.71854 32.87750 26186 ft 421 kts 288°
2026-04-30 06:43 25.72724 32.84654 26463 ft 421 kts 288°
2026-04-30 06:43 25.73596 32.81553 26676 ft 422 kts 288°
2026-04-30 06:43 25.74629 32.78508 26868 ft 424 kts 295°
2026-04-30 06:43 25.76031 32.75620 27091 ft 425 kts 301°
2026-04-30 06:44 25.77757 32.72967 27366 ft 425 kts 308°
2026-04-30 06:44 25.79662 32.70462 27712 ft 423 kts 308°
2026-04-30 06:44 25.81558 32.67976 28039 ft 422 kts 308°
2026-04-30 06:44 25.82834 32.66298 28240 ft 421 kts 308°
2026-04-30 06:45 25.84691 32.63846 28548 ft 420 kts 308°
2026-04-30 06:45 25.86588 32.61332 28878 ft 418 kts 308°
2026-04-30 06:45 25.88422 32.58891 29219 ft 417 kts 308°
2026-04-30 06:45 25.90275 32.56423 29550 ft 415 kts 308°
2026-04-30 06:46 25.92117 32.53965 29883 ft 413 kts 308°
2026-04-30 06:46 25.93953 32.51511 30190 ft 412 kts 307°
2026-04-30 06:46 25.95780 32.49068 30458 ft 411 kts 307°
2026-04-30 06:46 25.97604 32.46627 30677 ft 411 kts 307°
2026-04-30 06:47 25.99430 32.44182 30896 ft 410 kts 307°
2026-04-30 06:47 26.01251 32.41742 31125 ft 410 kts 307°
2026-04-30 06:47 26.03068 32.39307 31356 ft 409 kts 307°
2026-04-30 06:47 26.04885 32.36872 31580 ft 409 kts 307°
2026-04-30 06:48 26.06698 32.34441 31784 ft 408 kts 307°
2026-04-30 06:48 26.08505 32.32016 32010 ft 407 kts 307°
2026-04-30 06:48 26.10322 32.29576 31965 ft 411 kts 307°
2026-04-30 06:49 26.13956 32.24693 32025 ft 407 kts 307°
2026-04-30 06:49 26.17552 32.19855 32016 ft 404 kts 307°
2026-04-30 06:50 26.21121 32.15049 32001 ft 402 kts 307°
2026-04-30 06:50 26.24680 32.10251 32023 ft 402 kts 307°
2026-04-30 06:51 26.28220 32.05470 32029 ft 408 kts 307°
2026-04-30 06:51 26.31827 32.00597 32008 ft 407 kts 307°
2026-04-30 06:52 26.35118 31.96148 32009 ft 406 kts 307°
2026-04-30 06:52 26.38697 31.91304 32025 ft 404 kts 307°
2026-04-30 06:53 26.42268 31.86465 31981 ft 403 kts 307°
2026-04-30 06:53 26.45832 31.81629 31977 ft 403 kts 307°
2026-04-30 06:54 26.49348 31.76854 31991 ft 403 kts 307°
2026-04-30 06:54 26.52899 31.72026 32015 ft 403 kts 307°
2026-04-30 06:55 26.56456 31.67184 32008 ft 403 kts 307°
2026-04-30 06:55 26.60006 31.62346 32019 ft 403 kts 307°
2026-04-30 06:56 26.63553 31.57508 32023 ft 402 kts 307°
2026-04-30 06:56 26.67095 31.52672 32044 ft 402 kts 307°
2026-04-30 06:57 26.70635 31.47833 32052 ft 402 kts 307°
2026-04-30 06:57 26.74178 31.43002 32048 ft 402 kts 307°
2026-04-30 06:58 26.77719 31.38172 32058 ft 401 kts 307°
2026-04-30 06:58 26.81243 31.33331 32063 ft 401 kts 307°
2026-04-30 06:59 26.84764 31.28489 32067 ft 401 kts 307°
2026-04-30 06:59 26.88290 31.23640 32084 ft 401 kts 307°
2026-04-30 07:00 26.91806 31.18797 32086 ft 401 kts 307°
2026-04-30 07:00 26.95320 31.13951 32084 ft 400 kts 307°
2026-04-30 07:01 26.98825 31.09118 32100 ft 399 kts 307°
2026-04-30 07:01 27.00694 31.06821 32089 ft 403 kts 318°
2026-04-30 07:01 27.03104 31.05168 32117 ft 411 kts 331°
2026-04-30 07:02 27.08760 31.03731 32101 ft 432 kts 355°
2026-04-30 07:02 27.14799 31.04325 32107 ft 438 kts 359°
2026-04-30 07:03 27.20861 31.05108 32117 ft 439 kts 359°
2026-04-30 07:03 27.26933 31.05842 32092 ft 439 kts 358°
2026-04-30 07:04 27.33019 31.06533 32073 ft 440 kts 358°
2026-04-30 07:04 27.39070 31.07205 32075 ft 440 kts 358°
2026-04-30 07:05 27.48225 31.08220 32076 ft 442 kts 358°
2026-04-30 07:05 27.54345 31.08902 32066 ft 442 kts 358°
2026-04-30 07:06 27.60470 31.09586 32063 ft 442 kts 358°
2026-04-30 07:06 27.66588 31.10270 32067 ft 442 kts 358°
2026-04-30 07:07 27.72702 31.10953 32076 ft 441 kts 358°
2026-04-30 07:07 27.78814 31.11637 32061 ft 441 kts 358°
2026-04-30 07:08 27.84921 31.12321 32066 ft 441 kts 358°
2026-04-30 07:08 27.91019 31.13004 32054 ft 440 kts 358°
2026-04-30 07:09 27.97109 31.13686 32079 ft 439 kts 357°
2026-04-30 07:09 28.03194 31.14367 32065 ft 439 kts 358°
2026-04-30 07:10 28.09278 31.15051 32057 ft 439 kts 358°
2026-04-30 07:10 28.15352 31.15730 32054 ft 438 kts 357°
2026-04-30 07:11 28.21421 31.16405 32076 ft 438 kts 357°
2026-04-30 07:11 28.27484 31.17077 32061 ft 438 kts 357°
2026-04-30 07:12 28.33551 31.17750 32055 ft 438 kts 357°
2026-04-30 07:12 28.39620 31.18424 32054 ft 438 kts 357°
2026-04-30 07:13 28.45687 31.19099 32094 ft 438 kts 358°
2026-04-30 07:13 28.51763 31.19775 32061 ft 439 kts 358°
2026-04-30 07:14 28.57804 31.20447 32050 ft 439 kts 358°
2026-04-30 07:14 28.63875 31.21122 32050 ft 439 kts 358°
2026-04-30 07:15 28.69949 31.21801 32081 ft 438 kts 358°
2026-04-30 07:15 28.76022 31.22523 32061 ft 439 kts 359°
2026-04-30 07:16 28.82089 31.23272 32048 ft 438 kts 359°
2026-04-30 07:16 28.88149 31.24013 32047 ft 438 kts 358°
2026-04-30 07:17 28.94205 31.24748 32073 ft 437 kts 359°
2026-04-30 07:18 29.03289 31.25850 32053 ft 438 kts 359°
2026-04-30 07:18 29.09348 31.26586 32041 ft 438 kts 359°
2026-04-30 07:19 29.15412 31.27323 32058 ft 438 kts 359°
2026-04-30 07:19 29.21478 31.28061 32053 ft 439 kts 359°
2026-04-30 07:20 29.27550 31.28801 32050 ft 439 kts 359°
2026-04-30 07:20 29.33582 31.29534 32046 ft 439 kts 359°
2026-04-30 07:21 29.39656 31.30277 32043 ft 439 kts 359°
2026-04-30 07:21 29.45765 31.31027 32041 ft 439 kts 359°
2026-04-30 07:22 29.54821 31.32138 32042 ft 438 kts 359°
2026-04-30 07:22 29.60928 31.32884 32043 ft 438 kts 359°
2026-04-30 07:23 29.66949 31.33621 32058 ft 438 kts 359°
2026-04-30 07:23 29.73012 31.34362 32043 ft 438 kts 359°
2026-04-30 07:24 29.79075 31.35106 32047 ft 438 kts 359°
2026-04-30 07:24 29.85142 31.35850 32048 ft 438 kts 359°
2026-04-30 07:25 29.91210 31.36594 32066 ft 439 kts 359°
2026-04-30 07:25 29.97287 31.37340 32057 ft 439 kts 359°
2026-04-30 07:26 30.03368 31.38086 32049 ft 440 kts 359°
2026-04-30 07:26 30.09447 31.38670 32039 ft 434 kts 352°
2026-04-30 07:27 30.15353 31.37790 32066 ft 427 kts 345°
2026-04-30 07:27 30.21213 31.36662 32057 ft 427 kts 345°
2026-04-30 07:28 30.27091 31.35569 32047 ft 428 kts 345°
2026-04-30 07:28 30.32970 31.34496 32047 ft 428 kts 345°
2026-04-30 07:29 30.38851 31.33423 32055 ft 428 kts 345°
2026-04-30 07:29 30.44739 31.32347 32056 ft 428 kts 345°
2026-04-30 07:30 30.52565 31.30916 32051 ft 428 kts 345°
2026-04-30 07:31 30.58437 31.29837 32060 ft 427 kts 345°
2026-04-30 07:31 30.64307 31.28753 32060 ft 427 kts 345°
2026-04-30 07:32 30.70167 31.27668 32068 ft 426 kts 345°
2026-04-30 07:32 30.76023 31.26582 32065 ft 426 kts 345°
2026-04-30 07:33 30.81882 31.25494 32064 ft 426 kts 345°
2026-04-30 07:33 30.87729 31.24407 32063 ft 425 kts 345°
2026-04-30 07:34 30.93574 31.23319 32071 ft 426 kts 345°
2026-04-30 07:34 30.99422 31.22228 32067 ft 426 kts 345°
2026-04-30 07:35 31.05267 31.21137 32072 ft 425 kts 345°
2026-04-30 07:35 31.11110 31.20044 32069 ft 425 kts 345°
2026-04-30 07:36 31.16957 31.18947 32093 ft 425 kts 345°
2026-04-30 07:36 31.22803 31.17851 32080 ft 426 kts 345°
2026-04-30 07:37 31.28655 31.16768 32075 ft 426 kts 345°
2026-04-30 07:37 31.34475 31.15706 32073 ft 426 kts 345°
2026-04-30 07:38 31.40328 31.14631 32074 ft 426 kts 345°
2026-04-30 07:38 31.46185 31.13548 32084 ft 426 kts 345°
2026-04-30 07:39 31.52042 31.12467 32076 ft 426 kts 345°
2026-04-30 07:39 31.57957 31.11654 32080 ft 429 kts 348°
2026-04-30 07:40 31.63912 31.11071 32080 ft 429 kts 349°
2026-04-30 07:40 31.69867 31.10469 32090 ft 430 kts 348°
2026-04-30 07:41 31.75820 31.09831 32086 ft 429 kts 348°
2026-04-30 07:41 31.81763 31.09182 32083 ft 429 kts 348°
2026-04-30 07:42 31.87712 31.08530 32087 ft 429 kts 348°
2026-04-30 07:42 31.93660 31.07876 32119 ft 431 kts 348°
2026-04-30 07:42 31.96651 31.07546 32312 ft 432 kts 348°
2026-04-30 07:43 31.99638 31.07220 32580 ft 430 kts 348°
2026-04-30 07:43 32.02606 31.06896 32840 ft 428 kts 348°
2026-04-30 07:43 32.05575 31.06572 33070 ft 428 kts 348°
2026-04-30 07:43 32.08543 31.06250 33234 ft 428 kts 348°
2026-04-30 07:44 32.11509 31.05929 33398 ft 429 kts 348°
2026-04-30 07:44 32.14484 31.05606 33600 ft 429 kts 348°
2026-04-30 07:44 32.17455 31.05282 33804 ft 428 kts 348°
2026-04-30 07:44 32.20380 31.04963 33994 ft 428 kts 348°
2026-04-30 07:45 32.23347 31.04638 34084 ft 429 kts 348°
2026-04-30 07:45 32.29348 31.03977 34087 ft 430 kts 348°
2026-04-30 07:46 32.35239 31.03330 34080 ft 427 kts 348°
2026-04-30 07:46 32.41140 31.02680 34087 ft 425 kts 348°
2026-04-30 07:47 32.47023 31.02030 34084 ft 424 kts 348°
2026-04-30 07:47 32.52889 31.01381 34088 ft 423 kts 348°
2026-04-30 07:48 32.58758 31.00730 34089 ft 424 kts 348°
2026-04-30 07:48 32.64635 31.00077 34098 ft 425 kts 348°
2026-04-30 07:49 32.70541 30.99420 34091 ft 427 kts 348°
2026-04-30 07:49 32.76467 30.98761 34089 ft 428 kts 348°
2026-04-30 07:50 32.82408 30.98099 34084 ft 430 kts 348°
2026-04-30 07:50 32.88369 30.97434 34098 ft 431 kts 349°
2026-04-30 07:51 32.94348 30.96765 34090 ft 431 kts 349°
2026-04-30 07:51 33.00322 30.96095 34082 ft 431 kts 349°
2026-04-30 07:52 33.06292 30.95424 34084 ft 431 kts 349°
2026-04-30 07:52 33.12265 30.94836 34088 ft 432 kts 352°
2026-04-30 07:53 33.18277 30.94616 34078 ft 432 kts 353°
2026-04-30 07:53 33.24278 30.94459 34077 ft 431 kts 353°
2026-04-30 07:54 33.30220 30.94268 34078 ft 429 kts 352°
2026-04-30 07:54 33.36183 30.94050 34088 ft 429 kts 353°
2026-04-30 07:55 33.42144 30.93825 34082 ft 428 kts 353°
2026-04-30 07:55 33.48098 30.93601 34080 ft 428 kts 353°
2026-04-30 07:56 33.54045 30.93377 34079 ft 428 kts 353°
2026-04-30 07:56 33.59995 30.93152 34080 ft 429 kts 353°
2026-04-30 07:57 33.65963 30.92926 34078 ft 429 kts 353°
2026-04-30 07:57 33.71940 30.92700 34074 ft 430 kts 353°
2026-04-30 07:58 33.77930 30.92472 34077 ft 431 kts 353°
2026-04-30 07:58 33.83936 30.92243 34080 ft 432 kts 353°
2026-04-30 07:59 33.89958 30.92011 34076 ft 433 kts 353°
2026-04-30 07:59 33.95994 30.91779 34076 ft 434 kts 353°
2026-04-30 08:00 34.05055 30.91290 34090 ft 435 kts 353°
2026-04-30 08:00 34.11103 30.90945 34071 ft 436 kts 353°
2026-04-30 08:01 34.17164 30.90604 34067 ft 436 kts 353°
2026-04-30 08:01 34.23230 30.90268 34072 ft 436 kts 353°
2026-04-30 08:02 34.32310 30.89803 34070 ft 436 kts 353°
2026-04-30 08:03 34.44429 30.89196 34070 ft 435 kts 353°
2026-04-30 08:04 34.50477 30.88886 34072 ft 435 kts 353°
2026-04-30 08:04 34.56534 30.88572 34070 ft 436 kts 353°
2026-04-30 08:05 34.62555 30.88268 34070 ft 436 kts 354°
2026-04-30 08:05 34.68629 30.88062 34068 ft 437 kts 354°
2026-04-30 08:06 34.74714 30.87892 34071 ft 438 kts 355°
2026-04-30 08:06 34.80818 30.87709 34068 ft 439 kts 355°
2026-04-30 08:07 34.86939 30.87513 34067 ft 440 kts 355°
2026-04-30 08:07 34.93068 30.87314 34080 ft 441 kts 356°
2026-04-30 08:08 34.99213 30.87115 34076 ft 442 kts 356°
2026-04-30 08:08 35.05373 30.86915 34065 ft 443 kts 356°
2026-04-30 08:09 35.11542 30.86711 34070 ft 444 kts 356°
2026-04-30 08:09 35.17719 30.86511 34063 ft 445 kts 356°
2026-04-30 08:10 35.23904 30.86308 34070 ft 445 kts 356°
2026-04-30 08:10 35.30097 30.86101 34064 ft 445 kts 356°
2026-04-30 08:11 35.36288 30.85889 34076 ft 445 kts 356°
2026-04-30 08:11 35.42481 30.85675 34065 ft 445 kts 356°
2026-04-30 08:12 35.48675 30.85461 34063 ft 445 kts 356°
2026-04-30 08:12 35.54868 30.85244 34062 ft 445 kts 356°
2026-04-30 08:13 35.61057 30.85031 34067 ft 445 kts 356°
2026-04-30 08:13 35.67241 30.84721 34063 ft 445 kts 355°
2026-04-30 08:14 35.73425 30.84321 34065 ft 445 kts 355°
2026-04-30 08:14 35.79566 30.83928 34066 ft 445 kts 355°
2026-04-30 08:15 35.85748 30.83544 34065 ft 445 kts 355°
2026-04-30 08:15 35.91937 30.83163 34066 ft 445 kts 355°
2026-04-30 08:16 35.98126 30.82777 34062 ft 445 kts 355°
2026-04-30 08:16 36.04315 30.82395 34067 ft 446 kts 355°
2026-04-30 08:17 36.10526 30.82153 34060 ft 447 kts 357°
2026-04-30 08:17 36.16742 30.81997 34060 ft 447 kts 357°
2026-04-30 08:18 36.22961 30.81815 34057 ft 447 kts 356°
2026-04-30 08:18 36.28134 30.81649 34060 ft 448 kts 356°
2026-04-30 08:19 36.34364 30.81443 34054 ft 448 kts 356°
2026-04-30 08:19 36.40597 30.81241 34055 ft 448 kts 356°
2026-04-30 08:20 36.46832 30.81033 34052 ft 448 kts 356°
2026-04-30 08:20 36.53073 30.80815 34052 ft 449 kts 356°
2026-04-30 08:21 36.59316 30.80592 34051 ft 449 kts 356°
2026-04-30 08:21 36.65556 30.80368 34050 ft 449 kts 356°
2026-04-30 08:22 36.71793 30.80144 34050 ft 449 kts 356°
2026-04-30 08:22 36.78034 30.79918 34050 ft 448 kts 356°
2026-04-30 08:23 36.84268 30.79691 34047 ft 448 kts 356°
2026-04-30 08:23 36.90504 30.79466 34054 ft 448 kts 356°
2026-04-30 08:24 36.96743 30.79848 34055 ft 450 kts
2026-04-30 08:24 37.02967 30.80824 34050 ft 451 kts
2026-04-30 08:25 37.09191 30.81807 34057 ft 451 kts
2026-04-30 08:25 37.15421 30.82728 34061 ft 451 kts
2026-04-30 08:26 37.21615 30.83613 34057 ft 451 kts
2026-04-30 08:26 37.27854 30.84495 34051 ft 451 kts
2026-04-30 08:27 37.34080 30.85383 34093 ft 450 kts
2026-04-30 08:27 37.40313 30.86277 34079 ft 451 kts
2026-04-30 08:28 37.46548 30.87163 34073 ft 451 kts
2026-04-30 08:28 37.52771 30.88055 34098 ft 450 kts
2026-04-30 08:29 37.59015 30.88952 34089 ft 452 kts
2026-04-30 08:29 37.65271 30.89852 34095 ft 453 kts
2026-04-30 08:30 37.71547 30.90755 34084 ft 454 kts
2026-04-30 08:30 37.77829 30.91661 34094 ft 455 kts
2026-04-30 08:31 37.84119 30.92570 34101 ft 455 kts
2026-04-30 08:31 37.90405 30.93480 34106 ft 454 kts
2026-04-30 08:32 37.96683 30.94390 34074 ft 454 kts
2026-04-30 08:32 38.02956 30.95301 34079 ft 453 kts
2026-04-30 08:33 38.09220 30.96212 34094 ft 453 kts
2026-04-30 08:33 38.15473 30.97122 34091 ft 452 kts
2026-04-30 08:34 38.21717 30.98033 34079 ft 451 kts
2026-04-30 08:34 38.27953 30.98943 34098 ft 451 kts
2026-04-30 08:35 38.34186 30.99852 34085 ft 451 kts
2026-04-30 08:35 38.40415 31.00763 34094 ft 451 kts
2026-04-30 08:36 38.46637 31.01190 34075 ft 443 kts 347°
2026-04-30 08:36 38.49593 31.00227 34088 ft 437 kts 335°
2026-04-30 08:36 38.52280 30.98494 34080 ft 430 kts 322°
2026-04-30 08:37 38.57165 30.94084 34090 ft 431 kts 322°
2026-04-30 08:37 38.62042 30.89684 34084 ft 433 kts 322°
2026-04-30 08:38 38.66988 30.85270 34084 ft 434 kts 322°
2026-04-30 08:38 38.71947 30.80854 34103 ft 435 kts 322°
2026-04-30 08:39 38.76916 30.76420 34093 ft 435 kts 322°
2026-04-30 08:39 38.81883 30.71980 34090 ft 435 kts 322°
2026-04-30 08:40 38.86943 30.67710 34084 ft 437 kts 328°
2026-04-30 08:40 38.92379 30.64192 34088 ft 438 kts 330°
2026-04-30 08:41 38.97843 30.60760 34097 ft 437 kts 330°
2026-04-30 08:41 39.03280 30.57269 34087 ft 436 kts 329°
2026-04-30 08:42 39.08682 30.53749 34079 ft 435 kts 329°
2026-04-30 08:42 39.14062 30.50227 34078 ft 433 kts 329°
2026-04-30 08:43 39.19429 30.46707 34083 ft 432 kts 329°
2026-04-30 08:43 39.23877 30.43787 34094 ft 432 kts 329°
2026-04-30 08:44 39.27700 30.41274 34079 ft 432 kts 329°
2026-04-30 08:44 39.33045 30.37754 34082 ft 431 kts 329°
2026-04-30 08:45 39.38391 30.34227 34076 ft 431 kts 329°
2026-04-30 08:45 39.43724 30.30699 34077 ft 430 kts 329°
2026-04-30 08:46 39.49057 30.27169 34079 ft 430 kts 329°
2026-04-30 08:46 39.54548 30.24017 34068 ft 433 kts 333°
2026-04-30 08:47 39.60144 30.21112 34082 ft 433 kts 334°
2026-04-30 08:47 39.65736 30.18177 34075 ft 433 kts 333°
2026-04-30 08:48 39.71313 30.15204 34087 ft 434 kts 333°
2026-04-30 08:48 39.76899 30.12208 34075 ft 434 kts 333°
2026-04-30 08:49 39.82480 30.09207 34085 ft 434 kts 333°
2026-04-30 08:49 39.87829 30.06326 34086 ft 435 kts 333°
2026-04-30 08:50 39.93423 30.03309 34086 ft 436 kts 333°
2026-04-30 08:50 39.99031 30.00283 34081 ft 436 kts 333°
2026-04-30 08:51 40.04640 29.97258 34079 ft 436 kts 333°
2026-04-30 08:51 40.10203 29.94246 34079 ft 435 kts 333°
2026-04-30 08:52 40.15796 29.91209 34123 ft 435 kts 333°
2026-04-30 08:52 40.21376 29.88171 34103 ft 435 kts 332°
2026-04-30 08:53 40.26960 29.85124 34102 ft 434 kts 332°
2026-04-30 08:53 40.32541 29.82075 34097 ft 434 kts 332°
2026-04-30 08:54 40.38100 29.79032 34113 ft 433 kts 332°
2026-04-30 08:54 40.43649 29.75988 34115 ft 432 kts 332°
2026-04-30 08:55 40.49183 29.72946 34101 ft 431 kts 332°
2026-04-30 08:55 40.54706 29.69904 34109 ft 430 kts 332°
2026-04-30 08:56 40.60217 29.66861 34116 ft 428 kts 332°
2026-04-30 08:56 40.65671 29.63727 34109 ft 424 kts 326°
2026-04-30 08:57 40.70390 29.59269 34127 ft 416 kts 316°
2026-04-30 08:57 40.74887 29.54463 34126 ft 416 kts 316°
2026-04-30 08:58 40.79394 29.49672 34152 ft 416 kts 317°
2026-04-30 08:58 40.83919 29.44887 34155 ft 417 kts 317°
2026-04-30 08:59 40.88457 29.40092 34163 ft 418 kts 317°
2026-04-30 08:59 40.92996 29.35286 34159 ft 419 kts 317°
2026-04-30 09:00 40.97544 29.30460 34162 ft 419 kts 317°
2026-04-30 09:00 41.02095 29.25619 34155 ft 420 kts 317°
2026-04-30 09:01 41.06618 29.20802 34154 ft 420 kts 317°
2026-04-30 09:01 41.11374 29.16258 34123 ft 429 kts 330°
2026-04-30 09:02 41.20321 29.14205 34155 ft 448 kts 355°
2026-04-30 09:02 41.26547 29.14412 34146 ft 448 kts 356°
2026-04-30 09:03 41.32776 29.14556 34169 ft 447 kts 355°
2026-04-30 09:03 41.39004 29.14628 34154 ft 447 kts 355°
2026-04-30 09:04 41.45225 29.14698 34161 ft 447 kts 355°
2026-04-30 09:04 41.51442 29.14718 34174 ft 446 kts 354°
2026-04-30 09:05 41.56599 29.14683 34170 ft 446 kts 354°
2026-04-30 09:05 41.62813 29.14636 34164 ft 446 kts 354°
2026-04-30 09:06 41.69017 29.14596 34166 ft 446 kts 354°
2026-04-30 09:06 41.75227 29.14560 34176 ft 446 kts 353°
2026-04-30 09:07 41.81438 29.14524 34170 ft 446 kts 353°
2026-04-30 09:07 41.87651 29.14488 34173 ft 446 kts 353°
2026-04-30 09:08 41.93858 29.14451 34185 ft 446 kts 353°
2026-04-30 09:08 42.00068 29.14413 34187 ft 446 kts 353°
2026-04-30 09:09 42.06279 29.14372 34190 ft 447 kts 353°
2026-04-30 09:09 42.12498 29.14332 34191 ft 446 kts 351°
2026-04-30 09:10 42.15531 29.13809 34173 ft 432 kts 337°
2026-04-30 09:10 42.18286 29.12393 34185 ft 420 kts 326°
2026-04-30 09:10 42.20712 29.10299 34187 ft 408 kts 314°
2026-04-30 09:10 42.22848 29.07801 34198 ft 407 kts 313°
2026-04-30 09:11 42.27077 29.02801 34190 ft 407 kts 313°
2026-04-30 09:11 42.31348 28.97773 34189 ft 408 kts 313°
2026-04-30 09:12 42.35630 28.92753 34220 ft 407 kts 313°
2026-04-30 09:12 42.39917 28.87728 34197 ft 407 kts 313°
2026-04-30 09:13 42.44194 28.82710 34187 ft 407 kts 313°
2026-04-30 09:13 42.48458 28.77698 34191 ft 406 kts 313°
2026-04-30 09:14 42.52710 28.72690 34194 ft 405 kts 313°
2026-04-30 09:14 42.56953 28.67682 34193 ft 404 kts 313°
2026-04-30 09:15 42.61184 28.62680 34197 ft 403 kts 313°
2026-04-30 09:15 42.65406 28.57679 34232 ft 403 kts 312°
2026-04-30 09:16 42.69630 28.52664 34209 ft 402 kts 312°
2026-04-30 09:16 42.73815 28.47688 34199 ft 402 kts 312°
2026-04-30 09:17 42.78021 28.42679 34202 ft 401 kts 312°
2026-04-30 09:17 42.82215 28.37673 34222 ft 401 kts 311°
2026-04-30 09:18 42.86408 28.32659 34213 ft 401 kts 311°
2026-04-30 09:18 42.90593 28.27646 34208 ft 400 kts 311°
2026-04-30 09:19 42.94772 28.22630 34239 ft 400 kts 311°
2026-04-30 09:19 42.98947 28.17608 34230 ft 400 kts 311°
2026-04-30 09:20 43.03122 28.12579 34219 ft 400 kts 311°
2026-04-30 09:20 43.07293 28.07544 34213 ft 400 kts 311°
2026-04-30 09:21 43.11457 28.02509 34219 ft 399 kts 311°
2026-04-30 09:21 43.15617 27.97468 34206 ft 399 kts 311°
2026-04-30 09:22 43.19773 27.92422 34224 ft 399 kts 310°
2026-04-30 09:22 43.23934 27.87361 34224 ft 400 kts 310°
2026-04-30 09:23 43.28099 27.82284 34209 ft 401 kts 311°
2026-04-30 09:23 43.32271 27.77193 34209 ft 400 kts 310°
2026-04-30 09:24 43.36422 27.72116 34220 ft 399 kts 310°
2026-04-30 09:24 43.40557 27.67050 34209 ft 398 kts 310°
2026-04-30 09:25 43.44676 27.61993 34207 ft 396 kts 310°
2026-04-30 09:25 43.48770 27.56956 34207 ft 394 kts 310°
2026-04-30 09:26 43.52849 27.51927 34223 ft 393 kts 310°
2026-04-30 09:26 43.56895 27.46929 34225 ft 393 kts 310°
2026-04-30 09:27 43.60965 27.41893 34224 ft 393 kts 310°
2026-04-30 09:27 43.65034 27.36848 34215 ft 393 kts 310°
2026-04-30 09:28 43.69104 27.31791 34212 ft 394 kts 310°
2026-04-30 09:28 43.73175 27.26726 34225 ft 393 kts 310°
2026-04-30 09:29 43.77235 27.21664 34217 ft 394 kts 310°
2026-04-30 09:29 43.81305 27.16578 34221 ft 394 kts 310°
2026-04-30 09:30 43.85372 27.11486 34268 ft 396 kts 310°
2026-04-30 09:30 43.89473 27.06340 34241 ft 399 kts 311°
2026-04-30 09:31 43.93370 27.01441 34235 ft 402 kts 311°
2026-04-30 09:31 43.97504 26.96237 34241 ft 402 kts 311°
2026-04-30 09:32 44.01602 26.91063 34233 ft 402 kts 311°
2026-04-30 09:32 44.05736 26.85836 34262 ft 402 kts 311°
2026-04-30 09:33 44.09963 26.80673 34258 ft 407 kts 314°
2026-04-30 09:33 44.14436 26.75831 34292 ft 407 kts 316°
2026-04-30 09:34 44.18502 26.71505 34262 ft 406 kts 316°
2026-04-30 09:34 44.21911 26.67847 34258 ft 405 kts 316°
2026-04-30 09:35 44.26357 26.63029 34269 ft 404 kts 315°
2026-04-30 09:35 44.30786 26.58201 34281 ft 404 kts 315°
2026-04-30 09:36 44.35218 26.53352 34270 ft 405 kts 315°
2026-04-30 09:36 44.39651 26.48495 34279 ft 405 kts 315°
2026-04-30 09:37 44.44088 26.43623 34299 ft 406 kts 316°
2026-04-30 09:37 44.48528 26.38738 34286 ft 407 kts 316°
2026-04-30 09:38 44.52983 26.33827 34291 ft 408 kts 316°
2026-04-30 09:38 44.57443 26.28902 34288 ft 409 kts 316°
2026-04-30 09:39 44.61910 26.23958 34293 ft 409 kts 316°
2026-04-30 09:39 44.66376 26.19005 34306 ft 410 kts 316°
2026-04-30 09:40 44.70827 26.14060 34298 ft 411 kts 316°
2026-04-30 09:40 44.75317 26.09059 34295 ft 412 kts 316°
2026-04-30 09:41 44.79814 26.04042 34287 ft 413 kts 316°
2026-04-30 09:41 44.84319 25.99007 34302 ft 413 kts 316°
2026-04-30 09:42 44.88821 25.93964 34308 ft 413 kts 316°
2026-04-30 09:42 44.93317 25.88917 34302 ft 413 kts 316°
2026-04-30 09:43 44.97804 25.83871 34298 ft 412 kts 316°
2026-04-30 09:43 45.02278 25.78828 34320 ft 412 kts 316°
2026-04-30 09:44 45.06761 25.73763 34318 ft 413 kts 316°
2026-04-30 09:44 45.11249 25.68682 34293 ft 413 kts 316°
2026-04-30 09:45 45.15737 25.63592 34296 ft 414 kts 316°
2026-04-30 09:45 45.20226 25.58491 34299 ft 413 kts 316°
2026-04-30 09:46 45.24705 25.53390 34293 ft 412 kts 316°
2026-04-30 09:46 45.29174 25.48289 34294 ft 412 kts 316°
2026-04-30 09:47 45.33635 25.43187 34318 ft 412 kts 316°
2026-04-30 09:47 45.38114 25.38052 34313 ft 415 kts 316°
2026-04-30 09:48 45.42619 25.32877 34310 ft 417 kts 316°
2026-04-30 09:48 45.47140 25.27672 34309 ft 419 kts 316°
2026-04-30 09:49 45.51684 25.22432 34306 ft 421 kts 316°
2026-04-30 09:49 45.56243 25.17162 34293 ft 423 kts 316°
2026-04-30 09:50 45.60814 25.11866 34306 ft 424 kts 317°
2026-04-30 09:50 45.65404 25.06538 34305 ft 425 kts 317°
2026-04-30 09:51 45.69994 25.01199 34301 ft 425 kts 317°
2026-04-30 09:51 45.74578 24.95854 34293 ft 425 kts 317°
2026-04-30 09:52 45.79159 24.90503 34295 ft 424 kts 317°
2026-04-30 09:52 45.82954 24.86059 34292 ft 424 kts 317°
2026-04-30 09:53 45.87515 24.80707 34282 ft 423 kts 317°
2026-04-30 09:53 45.92075 24.75346 34293 ft 424 kts 318°
2026-04-30 09:54 45.96635 24.69972 34292 ft 424 kts 318°
2026-04-30 09:54 46.01201 24.64580 34282 ft 425 kts 318°
2026-04-30 09:55 46.05768 24.59174 34290 ft 425 kts 318°
2026-04-30 09:55 46.10344 24.53745 34290 ft 426 kts 318°
2026-04-30 09:56 46.14922 24.48302 34279 ft 427 kts 318°
2026-04-30 09:56 46.19484 24.42867 34288 ft 428 kts 318°
2026-04-30 09:57 46.24081 24.37378 34272 ft 429 kts 318°
2026-04-30 09:57 46.28707 24.31840 34279 ft 429 kts 318°
2026-04-30 09:58 46.33272 24.26365 34275 ft 429 kts 318°
2026-04-30 09:58 46.37864 24.20843 34275 ft 429 kts 318°
2026-04-30 09:59 46.47027 24.09790 34284 ft 428 kts 318°
2026-04-30 10:00 46.53880 24.01489 34281 ft 427 kts 318°
2026-04-30 10:01 46.60715 23.93184 34288 ft 427 kts 318°
2026-04-30 10:02 46.67519 23.84885 34291 ft 428 kts 318°
2026-04-30 10:02 46.72078 23.79310 34293 ft 428 kts 319°
2026-04-30 10:03 46.76631 23.73729 34304 ft 429 kts 319°
2026-04-30 10:03 46.81197 23.68119 34302 ft 430 kts 319°
2026-04-30 10:04 46.85774 23.62484 34296 ft 431 kts 319°
2026-04-30 10:04 46.90363 23.56821 34294 ft 432 kts 319°
2026-04-30 10:05 46.94953 23.51141 34286 ft 433 kts 320°
2026-04-30 10:05 46.99547 23.45446 34289 ft 433 kts 320°
2026-04-30 10:06 47.04145 23.39730 34291 ft 434 kts 320°
2026-04-30 10:06 47.08718 23.34033 34293 ft 434 kts 319°
2026-04-30 10:07 47.13316 23.28292 34294 ft 434 kts 320°
2026-04-30 10:07 47.17909 23.22543 34294 ft 433 kts 320°
2026-04-30 10:08 47.22493 23.16791 34291 ft 432 kts 320°
2026-04-30 10:08 47.27059 23.11049 34300 ft 431 kts 320°
2026-04-30 10:09 47.31605 23.05319 34300 ft 430 kts 320°
2026-04-30 10:09 47.36139 22.99589 34288 ft 429 kts 321°
2026-04-30 10:10 47.40655 22.93869 34309 ft 427 kts 321°
2026-04-30 10:10 47.45161 22.88149 34318 ft 427 kts 321°
2026-04-30 10:11 47.49666 22.82416 34321 ft 428 kts 321°
2026-04-30 10:11 47.54177 22.76661 34321 ft 429 kts 321°
2026-04-30 10:12 47.58699 22.70877 34312 ft 430 kts 321°
2026-04-30 10:12 47.63229 22.65070 34329 ft 431 kts 321°
2026-04-30 10:13 47.67767 22.59236 34320 ft 432 kts 321°
2026-04-30 10:13 47.72314 22.53374 34327 ft 433 kts 321°
2026-04-30 10:14 47.76863 22.47499 34327 ft 434 kts 321°
2026-04-30 10:14 47.83414 22.38218 34336 ft 434 kts 316°
2026-04-30 10:15 47.87537 22.31744 34343 ft 433 kts 316°
2026-04-30 10:15 47.91677 22.25241 34341 ft 432 kts 316°
2026-04-30 10:16 47.95818 22.18767 34353 ft 431 kts 316°
2026-04-30 10:17 48.02010 22.09090 34352 ft 429 kts 316°
2026-04-30 10:17 48.08175 21.99423 34363 ft 428 kts 316°
2026-04-30 10:18 48.12277 21.92970 34366 ft 428 kts 316°
2026-04-30 10:19 48.18434 21.83251 34351 ft 429 kts 316°
2026-04-30 10:19 48.22533 21.76761 34367 ft 429 kts 316°
2026-04-30 10:20 48.26641 21.70239 34366 ft 431 kts 316°
2026-04-30 10:20 48.32815 21.60408 34367 ft 432 kts 316°
2026-04-30 10:21 48.36937 21.53820 34369 ft 433 kts 316°
2026-04-30 10:21 48.41061 21.47211 34382 ft 433 kts 316°
2026-04-30 10:22 48.45187 21.40578 34373 ft 434 kts 316°
2026-04-30 10:22 48.49324 21.33939 34381 ft 434 kts 318°
2026-04-30 10:23 48.51636 21.31043 34387 ft 431 kts 330°
2026-04-30 10:23 48.54240 21.28850 34402 ft 428 kts 338°
2026-04-30 10:23 48.59904 21.26342 34388 ft 424 kts 349°
2026-04-30 10:24 48.65677 21.24478 34403 ft 424 kts 349°
2026-04-30 10:24 48.71443 21.22576 34394 ft 424 kts 349°
2026-04-30 10:25 48.77160 21.20634 34402 ft 424 kts 349°
2026-04-30 10:25 48.82911 21.18658 34393 ft 423 kts 349°
2026-04-30 10:26 48.88651 21.16678 34391 ft 423 kts 349°
2026-04-30 10:26 48.94386 21.14696 34390 ft 423 kts 349°
2026-04-30 10:27 49.00120 21.12710 34366 ft 422 kts 349°
2026-04-30 10:27 49.05835 21.10725 34394 ft 421 kts 349°
2026-04-30 10:28 49.11551 21.08736 34389 ft 421 kts 349°
2026-04-30 10:28 49.17256 21.06744 34390 ft 420 kts 349°
2026-04-30 10:29 49.22955 21.04746 34393 ft 420 kts 349°
2026-04-30 10:29 49.28658 21.02749 34393 ft 420 kts 349°
2026-04-30 10:30 49.31449 21.01371 34369 ft 424 kts 337°
2026-04-30 10:30 49.34008 20.99096 34396 ft 427 kts 328°
2026-04-30 10:30 49.36288 20.96145 34379 ft 433 kts 316°
2026-04-30 10:30 49.38241 20.92618 34379 ft 434 kts 313°
2026-04-30 10:31 49.42023 20.85372 34389 ft 435 kts 313°
2026-04-30 10:31 49.45801 20.78097 34395 ft 435 kts 313°
2026-04-30 10:32 49.53437 20.63527 34393 ft 436 kts 313°
2026-04-30 10:33 49.57249 20.56255 34386 ft 436 kts 314°
2026-04-30 10:33 49.61059 20.48969 34391 ft 437 kts 314°
2026-04-30 10:34 49.64863 20.41671 34397 ft 436 kts 314°
2026-04-30 10:34 49.68665 20.34356 34397 ft 437 kts 314°
2026-04-30 10:35 49.72463 20.27029 34402 ft 437 kts 313°
2026-04-30 10:35 49.76253 20.19696 34396 ft 436 kts 314°
2026-04-30 10:36 49.80039 20.12352 34405 ft 436 kts 314°
2026-04-30 10:36 49.83820 20.04997 34409 ft 436 kts 314°
2026-04-30 10:37 49.87592 19.97638 34411 ft 436 kts 314°
2026-04-30 10:37 49.91280 19.90408 34044 ft 420 kts 315°
2026-04-30 10:38 49.93069 19.86893 33785 ft 411 kts 315°
2026-04-30 10:38 49.94240 19.84593 33535 ft 408 kts 315°
2026-04-30 10:38 49.95989 19.81156 33178 ft 404 kts 315°
2026-04-30 10:38 49.97721 19.77751 32792 ft 400 kts 315°
2026-04-30 10:39 49.99437 19.74374 32415 ft 396 kts 315°
2026-04-30 10:39 50.01134 19.71028 32041 ft 393 kts 316°
2026-04-30 10:39 50.02818 19.67704 31646 ft 389 kts 316°
2026-04-30 10:39 50.04485 19.64409 31281 ft 385 kts 316°
2026-04-30 10:40 50.06139 19.61137 30926 ft 385 kts 316°
2026-04-30 10:40 50.07800 19.57852 30585 ft 388 kts 316°
2026-04-30 10:40 50.09466 19.54551 30125 ft 387 kts 316°
2026-04-30 10:40 50.11113 19.51276 29766 ft 382 kts 316°
2026-04-30 10:41 50.12739 19.48035 29376 ft 378 kts 316°
2026-04-30 10:41 50.14346 19.44829 29006 ft 373 kts 316°
2026-04-30 10:41 50.15938 19.41650 28632 ft 370 kts 316°
2026-04-30 10:41 50.17513 19.38504 28263 ft 367 kts 317°
2026-04-30 10:42 50.19078 19.35377 27910 ft 366 kts 317°
2026-04-30 10:42 50.20650 19.32239 27553 ft 367 kts 316°
2026-04-30 10:42 50.22215 19.29105 27173 ft 365 kts 316°
2026-04-30 10:42 50.23767 19.25989 26815 ft 362 kts 316°
2026-04-30 10:43 50.25306 19.22896 26456 ft 360 kts 316°
2026-04-30 10:43 50.26840 19.19812 26071 ft 358 kts 316°
2026-04-30 10:43 50.28362 19.16746 25725 ft 356 kts 316°
2026-04-30 10:43 50.29883 19.13684 25390 ft 358 kts 316°
2026-04-30 10:44 50.31414 19.10598 25042 ft 359 kts 316°
2026-04-30 10:44 50.32939 19.07517 24686 ft 357 kts 316°
2026-04-30 10:44 50.34454 19.04448 24337 ft 355 kts 316°
2026-04-30 10:44 50.35957 19.01401 23974 ft 353 kts 316°
2026-04-30 10:45 50.37453 18.98366 23560 ft 351 kts 315°
2026-04-30 10:45 50.38921 18.95384 23187 ft 348 kts 315°
2026-04-30 10:45 50.40411 18.92352 22839 ft 345 kts 315°
2026-04-30 10:45 50.41851 18.89421 22492 ft 342 kts 315°
2026-04-30 10:46 50.43317 18.86435 22143 ft 339 kts 315°
2026-04-30 10:46 50.44729 18.83554 21815 ft 337 kts 315°
2026-04-30 10:46 50.46153 18.80646 21470 ft 334 kts 315°
2026-04-30 10:46 50.47568 18.77754 21157 ft 334 kts 315°
2026-04-30 10:47 50.48983 18.74863 20843 ft 333 kts 315°
2026-04-30 10:47 50.50392 18.71977 20514 ft 333 kts 315°
2026-04-30 10:47 50.51799 18.69092 20195 ft 333 kts 315°
2026-04-30 10:47 50.53207 18.66201 19853 ft 332 kts 315°
2026-04-30 10:48 50.54605 18.63325 19519 ft 330 kts 315°
2026-04-30 10:48 50.55997 18.60457 19187 ft 328 kts 315°
2026-04-30 10:48 50.57376 18.57613 18865 ft 326 kts 315°
2026-04-30 10:48 50.58748 18.54780 18501 ft 325 kts 315°
2026-04-30 10:49 50.60109 18.51967 18140 ft 322 kts 315°
2026-04-30 10:49 50.61461 18.49172 17804 ft 320 kts 315°
2026-04-30 10:49 50.62803 18.46394 17449 ft 318 kts 314°
2026-04-30 10:49 50.64141 18.43627 17087 ft 316 kts 314°
2026-04-30 10:50 50.65465 18.40878 16732 ft 315 kts 314°
2026-04-30 10:50 50.66756 18.38090 16405 ft 314 kts 312°
2026-04-30 10:50 50.68018 18.35304 16110 ft 311 kts 312°
2026-04-30 10:50 50.69269 18.32538 15797 ft 309 kts 312°
2026-04-30 10:51 50.70517 18.29791 15469 ft 308 kts 312°
2026-04-30 10:51 50.71760 18.27057 15154 ft 306 kts 312°
2026-04-30 10:51 50.73000 18.24329 14845 ft 305 kts 311°
2026-04-30 10:51 50.74047 18.21396 14508 ft 311 kts 297°
2026-04-30 10:52 50.74785 18.18192 14253 ft 310 kts 295°
2026-04-30 10:52 50.75469 18.15034 14120 ft 298 kts 295°
2026-04-30 10:52 50.76131 18.11984 13842 ft 288 kts 295°
2026-04-30 10:52 50.76732 18.09243 13596 ft 279 kts 295°
2026-04-30 10:53 50.77365 18.06392 13321 ft 270 kts 296°
2026-04-30 10:53 50.77982 18.03634 13064 ft 263 kts 296°
2026-04-30 10:53 50.78590 18.00935 12820 ft 259 kts 296°
2026-04-30 10:53 50.79192 17.98269 12591 ft 257 kts 296°
2026-04-30 10:54 50.79790 17.95620 12358 ft 255 kts 296°
2026-04-30 10:54 50.80387 17.92980 12126 ft 256 kts 296°
2026-04-30 10:54 50.80988 17.90316 11919 ft 259 kts 296°
2026-04-30 10:54 50.81594 17.87623 11701 ft 260 kts 296°
2026-04-30 10:55 50.82199 17.84932 11464 ft 259 kts 296°
2026-04-30 10:55 50.82799 17.82263 11238 ft 257 kts 296°
2026-04-30 10:55 50.83395 17.79607 11014 ft 256 kts 296°
2026-04-30 10:55 50.83989 17.76958 10795 ft 254 kts 296°
2026-04-30 10:56 50.84580 17.74328 10558 ft 254 kts 296°
2026-04-30 10:56 50.85256 17.71751 10215 ft 253 kts 301°
2026-04-30 10:56 50.85980 17.69233 9824 ft 250 kts 301°
2026-04-30 10:56 50.86699 17.66753 9442 ft 247 kts 301°
2026-04-30 10:57 50.87407 17.64294 9054 ft 244 kts 301°
2026-04-30 10:57 50.88102 17.61862 8686 ft 241 kts 301°
2026-04-30 10:57 50.88788 17.59452 8319 ft 239 kts 301°
2026-04-30 10:57 50.89469 17.57061 7966 ft 238 kts 301°
2026-04-30 10:58 50.90134 17.54709 7617 ft 236 kts 301°
2026-04-30 10:58 50.90810 17.52310 7257 ft 234 kts 301°
2026-04-30 10:58 50.91470 17.49963 6921 ft 233 kts 301°
2026-04-30 10:58 50.92124 17.47626 6567 ft 232 kts 300°
2026-04-30 10:59 50.92764 17.45330 6376 ft 223 kts 300°
2026-04-30 10:59 50.93374 17.43156 6219 ft 215 kts 300°
2026-04-30 10:59 50.94022 17.41016 6064 ft 212 kts 302°
2026-04-30 10:59 50.94678 17.38944 6013 ft 210 kts 302°
2026-04-30 11:00 50.95332 17.36864 5987 ft 211 kts 302°
2026-04-30 11:00 50.95976 17.34816 6013 ft 214 kts 302°
2026-04-30 11:00 50.96657 17.32655 5728 ft 220 kts 301°
2026-04-30 11:00 50.97328 17.30501 5473 ft 215 kts 300°
2026-04-30 11:01 50.97981 17.28401 5194 ft 209 kts 300°
2026-04-30 11:01 50.98623 17.26339 4747 ft 209 kts 300°
2026-04-30 11:01 50.99263 17.24274 4265 ft 208 kts 300°
2026-04-30 11:01 50.99900 17.22223 3761 ft 208 kts 300°
2026-04-30 11:02 51.00536 17.20162 3288 ft 209 kts 300°
2026-04-30 11:02 51.01251 17.18162 2853 ft 206 kts 303°
2026-04-30 11:02 51.01882 17.16202 2697 ft 194 kts 296°
2026-04-30 11:02 51.02401 17.14276 2716 ft 191 kts 301°
2026-04-30 11:03 51.03004 17.12391 2685 ft 190 kts 301°
2026-04-30 11:03 51.03583 17.10521 2701 ft 189 kts 300°
2026-04-30 11:03 51.04146 17.08677 2663 ft 182 kts 300°
2026-04-30 11:04 51.05275 17.04949 2550 ft 193 kts 298°
2026-04-30 11:04 51.05869 17.03032 2299 ft 193 kts 300°
2026-04-30 11:04 51.06442 17.01146 2066 ft 184 kts 298°
2026-04-30 11:04 51.06998 16.99307 1745 ft 185 kts 300°
2026-04-30 11:05 51.07531 16.97468 1497 ft 180 kts 298°
2026-04-30 11:05 51.08077 16.95672 1456 ft 184 kts 298°
2026-04-30 11:05 51.08613 16.93831 1006 ft 178 kts 300°
2026-04-30 11:05 51.09124 16.92177 814 ft 156 kts 301°
2026-04-30 11:06 51.09602 16.90686 543 ft 146 kts 302°
2026-04-30 11:06 51.10049 16.89294 414 ft 138 kts 298°
2026-04-30 11:06 51.10427 16.88082 410 ft 106 kts 295°
2026-04-30 11:06 51.10684 16.87236 409 ft 45 kts 295°
2026-04-30 11:07 51.10745 16.87031 411 ft 19 kts 296°
2026-04-30 11:07 51.10802 16.86840 409 ft 19 kts 292°
2026-04-30 11:07 51.10826 16.86659 408 ft 14 kts 280°
2026-04-30 11:07 51.10866 16.86615 412 ft 7 kts 48°
2026-04-30 11:08 51.10855 16.86672 411 ft 5 kts 118°
2026-04-30 11:08 51.10841 16.86716 411 ft 4 kts 118°
2026-04-30 11:08 51.10828 16.86755 407 ft 4 kts 116°
2026-04-30 11:08 51.10811 16.86811 408 ft 7 kts 116°
2026-04-30 11:09 51.10783 16.86903 410 ft 11 kts 116°
2026-04-30 11:09 51.10748 16.87019 413 ft 10 kts 115°
2026-04-30 11:09 51.10716 16.87139 408 ft 13 kts 109°
2026-04-30 11:09 51.10743 16.87262 418 ft 13 kts 26°
2026-04-30 11:10 51.10827 16.87327 412 ft 14 kts 25°
2026-04-30 11:10 51.10920 16.87401 420 ft 15 kts 26°
2026-04-30 11:10 51.10933 16.87528 417 ft 13 kts 115°
2026-04-30 11:10 51.10945 16.87588 414 ft 7 kts 33°
2026-04-30 11:11 51.10975 16.87613 414 ft 0 kts 26°
2026-04-30 11:21 51.10980 16.87617 420 ft 0 kts 26°